カタログに戻る

STARLINK-4737

運用中通信VLEO
NORAD 53834·PAYLOAD·🇺🇸 United States

打ち上げ Sep 19, 2022 から Cape Canaveral Space Force Station

Loading…

次のパス (今後24時間)

TLE

最新Source: CelesTrak SupGP

元期: Sep 14, 2026, 22:20 UTC

1 53834C 22114S   26257.93104167 -.00057220  00000+0 -16372-2 0  2571
2 53834  53.1577 165.6630 0001199  90.5063  87.5242 15.35424436    19

AllMySatでSTARLINK-4737をリアルタイム追跡

Download on the App Store